CW7911 Weather Reports


time (UTC)temp
C
wind
direction
speed
KPH
gust
KPH
rain 1hr
cm
rain 24hr
cm
rain mn
cm
humidity
%
barometer
mb
20260906193326 22 0 1.6 1.6 0.00 0.18 0.18 35 1024.7
20260906192821 21 0 1.6 3.2 0.00 0.18 0.18 34 1024.6
20260906192316 21 0 1.6 3.2 0.00 0.18 0.18 34 1024.4
20260906191815 21 0 0.0 1.6 0.00 0.18 0.18 36 1024.6
20260906191309 21 0 1.6 3.2 0.00 0.18 0.18 36 1024.6
20260906190804 21 0 4.8 11.3 0.00 0.18 0.18 30 1024.4
20260906190303 22 0 3.2 9.7 0.00 0.18 0.18 35 1024.8
20260906185802 22 0 4.8 9.7 0.00 0.18 0.18 31 1024.6
20260906185305 22 0 0.0 1.6 0.00 0.18 0.18 38 1024.6
20260906184756 21 0 0.0 1.6 0.00 0.18 0.18 38 1024.6
20260906184251 21 0 1.6 4.8 0.00 0.18 0.18 36 1024.7
20260906183747 21 0 1.6 4.8 0.00 0.18 0.18 35 1024.6
20260906183243 21 0 3.2 6.4 0.00 0.18 0.18 38 1024.9
20260906182738 20 0 0.0 4.8 0.00 0.18 0.18 39 1024.6
20260906182234 20 0 3.2 3.2 0.00 0.18 0.18 38 1024.8
20260906181729 21 0 3.2 4.8 0.00 0.18 0.18 37 1024.8
20260906181225 20 0 1.6 6.4 0.00 0.18 0.18 38 1025.0
20260906180719 20 0 0.0 3.2 0.00 0.18 0.18 38 1024.7
20260906180214 20 0 0.0 9.7 0.00 0.18 0.18 43 1024.7
20260906175712 20 0 1.6 6.4 0.00 0.18 0.18 37 1025.1
20260906175208 20 0 0.0 3.2 0.00 0.18 0.18 48 1024.8
20260906174706 20 0 0.0 1.6 0.00 0.18 0.18 44 1024.6
20260906174201 20 0 1.6 3.2 0.00 0.18 0.18 42 1024.9
20260906173656 20 0 0.0 4.8 0.00 0.18 0.18 43 1025.1
20260906173152 19 0 0.0 3.2 0.00 0.18 0.18 47 1025.0
20260906172651 19 0 0.0 4.8 0.00 0.18 0.18 42 1025.2
20260906172147 19 0 3.2 4.8 0.00 0.18 0.18 44 1025.1
20260906171646 18 0 0.0 0.0 0.00 0.18 0.18 44 1025.2
20260906171142 19 0 0.0 1.6 0.00 0.18 0.18 42 1025.2
20260906170638 19 0 0.0 1.6 0.00 0.18 0.18 43 1025.2
20260906170137 19 0 0.0 0.0 0.00 0.18 0.18 44 1025.5
20260906165633 19 0 0.0 3.2 0.00 0.18 0.18 43 1025.5
20260906165129 18 0 3.2 4.8 0.00 0.18 0.18 42 1025.6
20260906164627 18 0 0.0 4.8 0.00 0.18 0.18 47 1025.6
20260906164123 18 0 0.0 0.0 0.00 0.18 0.18 47 1025.6
20260906163620 18 0 0.0 9.7 0.00 0.18 0.18 46 1025.7
20260906163115 18 0 1.6 4.8 0.00 0.18 0.18 47 1025.8
20260906162612 18 0 0.0 4.8 0.00 0.18 0.18 46 1025.9
20260906162106 18 0 0.0 1.6 0.00 0.18 0.18 48 1025.9
20260906161601 18 0 1.6 1.6 0.00 0.18 0.18 48 1026.0
20260906161100 18 0 1.6 3.2 0.00 0.18 0.18 50 1026.1
20260906160559 18 0 0.0 3.2 0.00 0.18 0.18 53 1025.9
20260906160058 17 0 1.6 6.4 0.00 0.18 0.18 50 1026.2
20260906155555 17 0 1.6 4.8 0.00 0.18 0.18 53 1026.1
20260906155052 18 0 0.0 4.8 0.00 0.18 0.18 56 1026.1
20260906154547 18 0 0.0 1.6 0.00 0.18 0.18 53 1026.4
20260906154046 18 0 0.0 0.0 0.00 0.18 0.18 54 1026.3
20260906153544 18 0 0.0 0.0 0.00 0.18 0.18 61 1026.3
20260906153040 18 0 0.0 0.0 0.00 0.18 0.18 55 1026.4
20260906152539 17 0 0.0 0.0 0.00 0.18 0.18 62 1026.4
20260906152038 18 0 0.0 3.2 0.00 0.18 0.18 53 1026.3
20260906151534 18 0 0.0 0.0 0.00 0.18 0.18 62 1026.4
20260906151029 17 0 0.0 3.2 0.00 0.18 0.18 58 1026.4
20260906150525 17 0 1.6 3.2 0.00 0.18 0.18 56 1026.5
20260906150020 16 0 0.0 3.2 0.00 0.18 0.18 57 1026.5
20260906145518 16 0 0.0 0.0 0.00 0.18 0.18 62 1026.6
20260906145014 15 0 0.0 3.2 0.00 0.18 0.18 61 1026.6
20260906144508 16 0 0.0 3.2 0.00 0.18 0.18 61 1026.6
20260906144003 16 0 0.0 3.2 0.00 0.18 0.18 68 1026.7
20260906143458 15 0 0.0 1.6 0.00 0.18 0.18 74 1026.6
20260906142954 15 0 0.0 1.6 0.00 0.18 0.18 72 1026.4
20260906142448 15 0 0.0 1.6 0.00 0.18 0.18 79 1026.7
20260906141944 15 0 0.0 0.0 0.00 0.18 0.18 82 1026.9
20260906141443 15 0 0.0 0.0 0.00 0.18 0.18 82 1026.8
20260906140938 15 0 0.0 0.0 0.00 0.18 0.18 82 1026.7
20260906140433 15 0 0.0 1.6 0.00 0.18 0.18 77 1026.7
20260906135931 15 0 1.6 1.6 0.00 0.18 0.18 84 1026.6
20260906135430 15 0 0.0 3.2 0.00 0.18 0.18 83 1026.7
20260906134926 14 295 0.0 0.0 0.00 0.18 0.18 86 1026.7
20260906134421 14 295 0.0 1.6 0.00 0.18 0.18 87 1026.8
20260906133916 14 295 0.0 3.2 0.00 0.18 0.18 86 1026.6
20260906133412 14 295 0.0 0.0 0.00 0.18 0.18 90 1026.5
20260906132907 14 295 0.0 0.0 0.00 0.18 0.18 91 1026.6
20260906132402 14 295 0.0 0.0 0.00 0.18 0.18 92 1026.6
20260906131858 13 295 0.0 0.0 0.00 0.18 0.18 92 1026.4
20260906131353 13 295 0.0 0.0 0.00 0.18 0.18 93 1026.5
20260906130849 13 295 0.0 0.0 0.00 0.18 0.18 94 1026.4
20260906130348 13 295 1.6 3.2 0.00 0.18 0.18 94 1026.5
20260906125847 13 295 0.0 1.6 0.00 0.18 0.18 94 1026.6
20260906125344 13 295 0.0 0.0 0.00 0.18 0.18 94 1026.6
20260906124839 13 295 0.0 0.0 0.00 0.18 0.18 94 1026.8
20260906124336 13 295 0.0 0.0 0.00 0.18 0.18 94 1026.9
20260906123835 13 295 0.0 0.0 0.00 0.18 0.18 94 1026.8
20260906123329 13 295 0.0 0.0 0.00 0.18 0.18 94 1026.7
20260906122829 13 295 0.0 0.0 0.00 0.18 0.18 94 1026.9
20260906122324 12 295 0.0 0.0 0.00 0.18 0.18 94 1026.7
20260906121821 12 295 0.0 0.0 0.00 0.18 0.18 94 1026.7
20260906121317 12 295 0.0 0.0 0.00 0.18 0.18 94 1027.0
20260906120813 12 295 0.0 0.0 0.00 0.18 0.18 94 1026.7
20260906120308 12 295 0.0 0.0 0.00 0.18 0.18 94 1026.7
20260906115804 12 295 0.0 0.0 0.00 0.18 0.18 94 1026.6
20260906115254 12 295 0.0 0.0 0.00 0.18 0.18 94 1026.5
20260906114753 12 295 0.0 0.0 0.00 0.18 0.18 94 1026.4
20260906114248 12 295 0.0 0.0 0.00 0.18 0.18 94 1026.4
20260906113743 12 295 0.0 0.0 0.00 0.18 0.18 94 1026.4
20260906113243 12 295 0.0 0.0 0.00 0.18 0.18 94 1026.6
20260906112737 12 295 0.0 0.0 0.00 0.18 0.18 94 1026.4
20260906112234 12 295 0.0 0.0 0.00 0.18 0.18 94 1026.2
20260906111733 12 295 0.0 0.0 0.00 0.18 0.18 94 1026.3
20260906111227 12 295 0.0 0.0 0.00 0.18 0.18 94 1026.1
20260906110722 12 295 0.0 0.0 0.00 0.18 0.18 94 1026.2
20260906110212 12 295 0.0 0.0 0.18 0.18 0.18 94 1026.2
20260906105705 12 295 0.0 0.0 0.18 0.18 0.18 94 1026.0
20260906105202 12 295 0.0 0.0 0.00 0.15 0.15 94 1026.1
20260906104701 12 295 0.0 0.0 0.00 0.15 0.15 94 1026.0
20260906104200 12 295 0.0 0.0 0.00 0.15 0.15 94 1026.1
20260906103658 12 295 0.0 0.0 0.00 0.15 0.15 94 1026.1
20260906103153 12 295 0.0 0.0 0.00 0.15 0.15 94 1025.9
20260906102648 12 295 0.0 0.0 0.00 0.15 0.15 94 1026.1
20260906102143 12 295 0.0 0.0 0.00 0.15 0.15 94 1026.2
20260906101642 12 295 0.0 0.0 0.13 0.15 0.15 94 1026.0
20260906101137 12 295 0.0 0.0 0.13 0.15 0.15 94 1026.1
20260906100633 12 295 0.0 0.0 0.00 0.13 0.13 94 1025.9
20260906100127 12 295 0.0 0.0 0.00 0.13 0.13 94 1025.9
20260906095622 12 295 0.0 0.0 0.18 0.13 0.13 94 1026.1
20260906095118 12 295 0.0 0.0 0.18 0.13 0.13 94 1025.8
20260906094616 12 295 0.0 0.0 0.00 0.10 0.10 94 1025.6
20260906094113 12 295 0.0 0.0 0.13 0.10 0.10 94 1025.8
20260906093608 12 295 0.0 0.0 0.13 0.10 0.10 94 1025.9
20260906093103 12 295 0.0 0.0 0.00 0.08 0.08 94 1025.8
20260906092558 12 295 0.0 0.0 0.00 0.08 0.08 94 1025.8
20260906092053 12 295 0.0 0.0 0.18 0.08 0.08 94 1025.6
20260906091549 12 295 0.0 0.0 0.13 0.05 0.05 94 1025.5
20260906091045 12 295 0.0 0.0 0.13 0.05 0.05 94 1025.7
20260906090545 12 295 0.0 0.0 0.00 0.03 0.03 94 1025.5
20260906090040 12 295 0.0 0.0 0.00 0.03 0.03 94 1025.5
20260906085539 12 295 0.0 0.0 0.00 0.03 0.03 94 1025.3
20260906085038 12 295 0.0 0.0 0.00 0.03 0.03 94 1025.2
20260906084533 12 295 0.0 0.0 0.00 0.03 0.03 94 1025.1
20260906084032 12 295 0.0 0.0 0.00 0.03 0.03 94 1025.3
20260906083528 12 295 0.0 0.0 0.00 0.03 0.03 94 1025.4
20260906083027 12 295 0.0 0.0 0.00 0.03 0.03 94 1025.2
20260906082523 12 295 0.0 0.0 0.00 0.03 0.03 94 1025.2
20260906082019 12 295 0.0 0.0 0.00 0.03 0.03 94 1025.0
20260906081514 12 295 0.0 0.0 0.00 0.03 0.03 94 1025.1
20260906081010 12 295 0.0 0.0 0.00 0.03 0.03 94 1025.1
20260906080506 12 295 0.0 0.0 0.18 0.03 0.03 93 1025.1
20260906080001 12 295 0.0 0.0 0.18 0.03 0.03 93 1025.0
20260906075456 12 295 0.0 0.0 0.00 0.00 0.00 93 1024.8
20260906074950 12 295 0.0 0.0 0.00 0.00 0.00 92 1025.2
20260906074445 12 295 0.0 0.0 0.00 0.00 0.00 92 1025.1
20260906073943 12 295 0.0 0.0 0.00 0.00 0.00 91 1024.9
20260906073439 12 295 0.0 0.0 0.00 0.00 0.00 91 1025.2
20260906072935 12 295 0.0 0.0 0.00 0.00 0.00 91 1025.2
20260906072430 12 295 0.0 0.0 0.00 0.00 0.00 91 1025.2
20260906071926 12 295 0.0 0.0 0.00 0.00 0.00 91 1025.2
20260906071422 12 295 0.0 0.0 0.00 0.00 0.00 91 1025.1
20260906070918 12 295 0.0 0.0 0.00 0.00 0.00 91 1024.8
20260906070413 12 295 0.0 0.0 0.00 0.00 0.00 91 1024.7
20260906065909 12 295 0.0 0.0 0.00 0.00 0.00 91 1025.2
20260906065403 12 295 0.0 0.0 0.00 0.00 0.00 91 1025.1
20260906064858 12 295 0.0 0.0 0.00 0.00 0.00 91 1024.9
20260906064349 12 295 0.0 0.0 0.00 0.00 0.00 91 1025.0
20260906063848 12 295 0.0 0.0 0.00 0.00 0.00 91 1025.0
20260906063344 12 295 0.0 0.0 0.00 0.00 0.00 90 1024.6
20260906062839 12 295 0.0 0.0 0.00 0.00 0.00 91 1024.8
20260906062338 12 295 0.0 0.0 0.00 0.00 0.00 91 1024.6
20260906061833 12 295 0.0 0.0 0.00 0.00 0.00 90 1024.8
20260906061324 12 295 0.0 0.0 0.00 0.00 0.00 90 1025.0
20260906060819 12 295 0.0 0.0 0.00 0.00 0.00 90 1024.7
20260906060317 12 295 0.0 0.0 0.00 0.00 0.00 90 1024.9
20260906055812 12 295 0.0 0.0 0.00 0.00 0.00 90 1024.7
20260906055308 12 295 0.0 0.0 0.00 0.00 0.00 90 1024.6
20260906054803 12 295 0.0 0.0 0.00 0.00 0.00 90 1024.6
20260906054258 12 295 0.0 0.0 0.00 0.00 0.00 90 1024.8
20260906053754 12 295 0.0 0.0 0.00 0.00 0.00 90 1024.8
20260906053250 12 295 0.0 0.0 0.00 0.00 0.00 89 1024.6
20260906052745 12 295 0.0 0.0 0.00 0.00 0.00 90 1024.9
20260906052241 12 295 0.0 0.0 0.00 0.00 0.00 89 1024.8
20260906051737 12 295 0.0 0.0 0.00 0.00 0.00 90 1025.2
20260906051236 12 295 0.0 0.0 0.00 0.00 0.00 90 1025.2
20260906050727 12 295 0.0 0.0 0.00 0.00 0.00 90 1024.9
20260906050222 12 295 0.0 0.0 0.00 0.00 0.00 90 1025.0
20260906045720 12 295 0.0 0.0 0.00 0.00 0.00 90 1025.0
20260906045215 12 295 0.0 0.0 0.00 0.00 0.00 90 1024.9
20260906044711 12 295 0.0 0.0 0.00 0.00 0.00 90 1024.9
20260906044206 12 295 0.0 0.0 0.00 0.00 0.00 90 1024.9
20260906043702 12 295 0.0 0.0 0.00 0.00 0.00 91 1024.6
20260906043157 12 295 0.0 0.0 0.00 0.00 0.00 91 1024.8
20260906042657 12 295 0.0 0.0 0.00 0.00 0.00 91 1024.9
20260906042151 12 295 0.0 0.0 0.00 0.00 0.00 91 1024.9
20260906041647 12 295 0.0 0.0 0.00 0.00 0.00 91 1025.0
20260906041142 12 295 0.0 0.0 0.00 0.00 0.00 91 1024.9
20260906040637 12 295 0.0 0.0 0.00 0.00 0.00 91 1024.9
20260906040133 12 295 0.0 0.0 0.00 0.00 0.00 91 1025.0
20260906035628 12 295 0.0 0.0 0.00 0.00 0.00 91 1024.9
20260906035123 12 295 0.0 0.0 0.00 0.00 0.00 91 1024.8
20260906034618 12 295 0.0 0.0 0.00 0.00 0.00 91 1024.8
20260906034113 12 295 0.0 0.0 0.00 0.00 0.00 91 1024.7
20260906033608 12 295 0.0 0.0 0.00 0.00 0.00 90 1024.8
20260906033102 12 295 0.0 0.0 0.00 0.00 0.00 90 1024.9
20260906032559 12 295 0.0 0.0 0.00 0.00 0.00 90 1024.7
20260906032054 12 295 0.0 0.0 0.00 0.00 0.00 90 1024.9
20260906031549 13 295 0.0 0.0 0.00 0.00 0.00 89 1024.7
20260906031045 13 295 0.0 0.0 0.00 0.00 0.00 89 1024.8
20260906030544 13 295 0.0 0.0 0.00 0.00 0.00 89 1024.8
20260906030043 13 295 0.0 0.0 0.00 0.00 0.00 89 1024.7
20260906025538 13 295 0.0 0.0 0.00 0.00 0.00 88 1024.8
20260906025036 13 295 0.0 0.0 0.00 0.00 0.00 88 1024.5
20260906024531 13 295 0.0 0.0 0.00 0.00 0.00 88 1024.7
20260906024032 13 295 0.0 0.0 0.00 0.00 0.00 88 1024.7
20260906023528 13 295 0.0 0.0 0.00 0.00 0.00 88 1024.7
20260906023028 13 295 0.0 0.0 0.00 0.00 0.00 88 1024.6
20260906022523 13 295 0.0 0.0 0.00 0.00 0.00 87 1024.4
20260906022013 13 295 0.0 0.0 0.00 0.00 0.00 87 1024.3
20260906021508 13 295 0.0 0.0 0.00 0.00 0.00 87 1024.5
20260906021002 14 295 0.0 0.0 0.00 0.00 0.00 87 1024.3
20260906020456 14 295 0.0 0.0 0.00 0.00 0.00 87 1024.3
20260906015956 14 295 0.0 0.0 0.00 0.00 0.00 86 1024.3
20260906015455 14 295 0.0 0.0 0.00 0.00 0.00 86 1024.3
20260906014949 14 295 0.0 0.0 0.00 0.00 0.00 86 1024.2
20260906014449 14 295 0.0 0.0 0.00 0.00 0.00 86 1024.3
20260906013945 14 295 0.0 0.0 0.00 0.00 0.00 86 1024.5
20260906013440 15 295 0.0 0.0 0.00 0.00 0.00 85 1024.4
20260906012936 15 295 0.0 0.0 0.00 0.00 0.00 84 1024.3
20260906012431 15 295 0.0 0.0 0.00 0.00 0.00 84 1024.5
20260906011930 15 295 0.0 0.0 0.00 0.00 0.00 83 1024.5
20260906011426 15 295 0.0 0.0 0.00 0.00 0.00 82 1024.3
20260906010921 15 295 0.0 0.0 0.00 0.00 0.00 82 1024.2
20260906010416 16 295 0.0 0.0 0.00 0.00 0.00 81 1024.5
20260906005912 16 295 0.0 0.0 0.00 0.00 0.00 81 1024.3
20260906005411 16 295 0.0 0.0 0.00 0.00 0.00 80 1024.2
20260906004904 16 295 0.0 0.0 0.00 0.00 0.00 80 1024.1
20260906004359 16 295 0.0 0.0 0.00 0.00 0.00 80 1024.4
20260906003854 16 295 0.0 0.0 0.00 0.00 0.00 80 1024.3
20260906003349 16 295 0.0 0.0 0.00 0.00 0.00 80 1024.1
20260906002845 16 295 0.0 0.0 0.00 0.00 0.00 80 1023.9
20260906002344 16 295 0.0 0.0 0.00 0.00 0.00 79 1023.9
20260906001840 16 295 0.0 0.0 0.00 0.00 0.00 79 1024.1
20260906001335 16 295 0.0 0.0 0.00 0.00 0.00 78 1024.1
20260906000830 16 295 0.0 0.0 0.00 0.00 0.00 79 1024.1
20260906000326 17 295 0.0 0.0 0.00 0.00 0.00 79 1024.1
20260905235826 17 295 0.0 0.0 0.00 0.00 0.00 79 1023.9
20260905235325 17 295 0.0 0.0 0.00 0.00 0.00 78 1023.8
20260905234821 17 295 0.0 0.0 0.00 0.00 0.00 79 1023.9
20260905234316 17 295 0.0 0.0 0.00 0.00 0.00 78 1023.6
20260905233811 17 295 0.0 0.0 0.00 0.00 0.00 79 1023.6
20260905233306 17 295 0.0 0.0 0.00 0.00 0.00 79 1023.7
20260905232805 17 295 0.0 0.0 0.00 0.00 0.00 80 1023.8
20260905232305 17 295 0.0 0.0 0.00 0.00 0.00 79 1023.5
20260905231757 17 295 0.0 0.0 0.00 0.00 0.00 79 1023.7
20260905231252 17 295 0.0 1.6 0.00 0.00 0.00 79 1023.8
20260905230748 17 295 0.0 1.6 0.00 0.00 0.00 78 1023.6
20260905230246 17 295 0.0 1.6 0.00 0.00 0.00 77 1023.4
20260905225746 17 295 0.0 0.0 0.00 0.00 0.00 77 1023.5
20260905225241 17 295 0.0 0.0 0.00 0.00 0.00 77 1023.3
20260905224740 17 295 0.0 0.0 0.00 0.00 0.00 77 1023.7
20260905224236 18 295 0.0 0.0 0.00 0.00 0.00 77 1023.6
20260905223731 18 295 0.0 0.0 0.00 0.00 0.00 76 1023.2
20260905223228 18 295 0.0 1.6 0.00 0.00 0.00 75 1023.2
20260905222724 18 295 0.0 1.6 0.00 0.00 0.00 75 1023.2
20260905222223 18 295 0.0 0.0 0.00 0.00 0.00 73 1023.2
20260905221719 18 295 0.0 0.0 0.00 0.00 0.00 72 1023.3
20260905221216 18 295 0.0 0.0 0.00 0.00 0.00 73 1023.3
20260905220711 19 295 0.0 0.0 0.00 0.00 0.00 71 1023.1
20260905220207 19 295 0.0 0.0 0.00 0.00 0.00 73 1023.2
20260905215706 19 295 0.0 0.0 0.00 0.00 0.00 72 1022.8
20260905215202 19 295 0.0 0.0 0.00 0.00 0.00 72 1022.8
20260905214658 19 295 0.0 0.0 0.00 0.00 0.00 72 1022.8
20260905214153 19 295 0.0 1.6 0.00 0.00 0.00 70 1022.8
20260905213648 19 295 0.0 0.0 0.00 0.00 0.00 71 1022.5
20260905213144 20 295 0.0 0.0 0.00 0.00 0.00 72 1022.4
20260905212639 19 295 0.0 0.0 0.00 0.00 0.00 70 1022.6
20260905212138 20 295 0.0 0.0 0.00 0.00 0.00 72 1022.3
20260905211633 20 295 0.0 1.6 0.00 0.00 0.00 70 1022.6
20260905211128 20 295 0.0 0.0 0.00 0.00 0.00 70 1022.4
20260905210625 20 295 0.0 1.6 0.00 0.00 0.00 70 1022.4
20260905210119 20 295 0.0 0.0 0.00 0.00 0.00 66 1022.4
20260905205618 20 295 0.0 0.0 0.00 0.00 0.00 68 1022.4
20260905205112 20 295 0.0 0.0 0.00 0.00 0.00 70 1022.2
20260905204606 20 295 0.0 1.6 0.00 0.00 0.00 68 1022.3
20260905204101 20 295 0.0 1.6 0.00 0.00 0.00 69 1022.2
20260905203556 20 295 0.0 1.6 0.00 0.00 0.00 68 1022.4
20260905203052 20 295 0.0 1.6 0.00 0.00 0.00 68 1022.3
20260905202547 20 295 0.0 0.0 0.00 0.00 0.00 70 1022.3
20260905202042 20 295 0.0 0.0 0.00 0.00 0.00 71 1022.1
20260905201538 20 295 0.0 0.0 0.00 0.00 0.00 72 1022.1
20260905201037 20 295 0.0 1.6 0.00 0.00 0.00 71 1021.9
20260905200533 20 295 0.0 0.0 0.00 0.00 0.00 71 1021.8
20260905200032 20 295 0.0 0.0 0.00 0.00 0.00 70 1022.1
20260905195526 20 295 0.0 0.0 0.00 0.00 0.00 68 1022.1
20260905195021 20 295 0.0 0.0 0.00 0.00 0.00 64 1022.2
20260905194516 20 295 0.0 0.0 0.00 0.00 0.00 68 1021.9
20260905194015 20 295 0.0 0.0 0.00 0.00 0.00 69 1022.1